Hibbing, MN

2:00 PM CDT on October 01, 2016 (GMT -0500)
Chisholm-hibbing

Weather History for KHIB - November, 2011

Change the Weather History Date:

Tuesday, November 15, 2011

  Actual Average Record
Temperature  
Mean Temperature 32 °F -  
Max Temperature 39 °F 34 °F 59 °F (2001)
Min Temperature 24 °F 17 °F -7 °F (2014)
Degree Days  
Heating Degree Days 34    
Moisture  
Dew Point 26 °F    
Average Humidity 89    
Maximum Humidity 100    
Minimum Humidity 49    
Precipitation  
Precipitation 0.09 in - - ()
Sea Level Pressure  
Sea Level Pressure 29.60 in    
Wind  
Wind Speed 3 mph (West)    
Max Wind Speed 26 mph    
Max Gust Speed 38 mph    
Visibility 6 miles    
Events Fog , Snow    
Averages and records for this station are not official NWS values.
T = Trace of Precipitation, MM = Missing Value Source: NWS Daily Summary

Daily Weather History Graph

Daily Weather History Graph

Search for Another Location

Airport or City:

Trip Planner

Search our weather history database for the weather conditions in past years. The results will help you decide how hot, cold, wet, or windy it might be!

Date:

Astronomy

Nov. 15, 2011 Rise Set
Actual Time 7:15 AM CST 4:35 PM CST
Civil Twilight 6:42 AM CST 5:09 PM CST
Nautical Twilight 6:04 AM CST 5:46 PM CST
Astronomical Twilight 5:28 AM CST 6:22 PM CST
Moon 8:44 PM CST (11/15) 11:17 AM CST (11/15)
Length of Visible Light 10h 27m
Length of Day
9h 20m
Waning Gibbous, 79% of the Moon is Illuminated
Nov 15
Waning Gibbous
Nov 18
Last Quarter
Nov 25
New
Dec 2
First Quarter
Dec 10
Full

Hourly Weather History & Observations

Time (CST) Temp. Windchill Dew Point Humidity Pressure Visibility Wind Dir Wind Speed Gust Speed Precip Events Conditions
12:53 AM 28.0 °F 24.2 °F 26.1 °F 92% 29.53 in 10.0 mi South 3.5 mph - N/A   Clear
1:53 AM 25.0 °F - 24.1 °F 96% 29.53 in 1.2 mi Calm Calm - N/A   Clear
1:59 AM 24.8 °F - 24.8 °F 100% 29.49 in 0.5 mi Calm Calm - N/A Fog Light Freezing Fog
2:05 AM 24.8 °F - 24.8 °F 100% 29.49 in 0.2 mi Calm Calm - N/A Fog Light Freezing Fog
2:13 AM 24.8 °F - 23.0 °F 93% 29.49 in 0.8 mi Calm Calm - N/A   Mostly Cloudy
2:21 AM 24.8 °F - 23.0 °F 93% 29.49 in 1.8 mi Calm Calm - N/A   Mostly Cloudy
2:27 AM 24.8 °F - 21.2 °F 86% 29.50 in 3.0 mi Calm Calm - N/A   Overcast
2:38 AM 26.6 °F 22.6 °F 24.8 °F 93% 29.51 in 10.0 mi WNW 3.5 mph 23.0 mph N/A   Overcast
2:53 AM 26.6 °F 22.6 °F 26.6 °F 100% 29.51 in 10.0 mi WSW 3.5 mph - N/A   Overcast
3:53 AM 28.0 °F 24.2 °F 26.1 °F 92% 29.55 in 10.0 mi Variable 3.5 mph - N/A   Mostly Cloudy
4:53 AM 28.0 °F 24.2 °F 26.1 °F 92% 29.55 in 10.0 mi SSW 3.5 mph - N/A   Mostly Cloudy
5:53 AM 26.6 °F - 24.8 °F 93% 29.50 in 10.0 mi Calm Calm - N/A   Overcast
6:53 AM 24.8 °F - 24.8 °F 100% 29.51 in 10.0 mi Calm Calm - N/A   Partly Cloudy
7:53 AM 25.0 °F - 24.1 °F 96% 29.59 in 10.0 mi Calm Calm - N/A   Clear
8:53 AM 28.0 °F - 27.0 °F 96% 29.60 in 10.0 mi Calm Calm - N/A   Clear
9:53 AM 33.1 °F - 30.0 °F 89% 29.61 in 10.0 mi Calm Calm - N/A   Clear
10:53 AM 35.1 °F - 28.0 °F 76% 29.60 in 10.0 mi Calm Calm - N/A   Clear
11:53 AM 37.9 °F - 24.1 °F 57% 29.57 in 10.0 mi Calm Calm - N/A   Clear
12:53 PM 39.9 °F 36.7 °F 21.9 °F 49% 29.57 in 10.0 mi NNW 4.6 mph - N/A   Mostly Cloudy
1:53 PM 39.0 °F - 21.0 °F 49% 29.57 in 10.0 mi Calm Calm - N/A   Overcast
2:53 PM 39.0 °F - 21.9 °F 50% 29.57 in 10.0 mi Calm Calm - N/A   Mostly Cloudy
3:53 PM 34.0 °F 24.2 °F 28.0 °F 79% 29.62 in 1.2 mi WNW 15.0 mph 20.7 mph 0.00 in Snow Light Snow
4:03 PM 32.0 °F 23.0 °F 30.2 °F 93% 29.57 in 0.8 mi West 11.5 mph 17.3 mph 0.00 in Snow Light Snow
4:15 PM 30.2 °F 22.6 °F 30.2 °F 100% 29.56 in 0.5 mi NW 8.1 mph - 0.03 in Fog , Snow Snow
4:50 PM 30.2 °F 26.7 °F 30.2 °F 100% 29.57 in 1.0 mi WNW 3.5 mph - 0.08 in Snow Light Snow
4:53 PM 30.9 °F - 30.0 °F 96% 29.63 in 1.2 mi Calm Calm - 0.08 in Snow Light Snow
5:02 PM 30.2 °F - 30.2 °F 100% 29.57 in 2.0 mi Calm Calm - 0.00 in Snow Light Snow
5:10 PM 30.2 °F 25.4 °F 30.2 °F 100% 29.57 in 6.0 mi WNW 4.6 mph - 0.00 in Snow Light Snow
5:53 PM 28.9 °F - 28.0 °F 96% 29.64 in 10.0 mi Calm Calm - 0.00 in   Mostly Cloudy
6:53 PM 30.9 °F 26.2 °F 27.0 °F 85% 29.65 in 10.0 mi SW 4.6 mph - 0.00 in   Overcast
7:29 PM 30.2 °F - 26.6 °F 86% 29.59 in 10.0 mi Calm Calm - N/A   Overcast
7:53 PM 30.0 °F - 28.0 °F 92% 29.66 in 5.0 mi Calm Calm - 0.00 in Snow Light Snow
8:01 PM 30.2 °F - 28.4 °F 93% 29.60 in 7.0 mi Calm Calm - 0.00 in Snow Light Snow
8:08 PM 30.2 °F - 28.4 °F 93% 29.60 in 9.0 mi Calm Calm - 0.00 in   Overcast
8:20 PM 30.2 °F 26.7 °F 28.4 °F 93% 29.61 in 2.5 mi West 3.5 mph - 0.00 in Snow Light Snow
8:23 PM 30.2 °F 26.7 °F 28.4 °F 93% 29.61 in 3.0 mi WSW 3.5 mph - 0.00 in Snow Light Snow
8:31 PM 30.2 °F 26.7 °F 28.4 °F 93% 29.61 in 5.0 mi WSW 3.5 mph - 0.00 in Snow Light Snow
8:53 PM 30.0 °F 24.1 °F 28.0 °F 92% 29.68 in 5.0 mi West 5.8 mph - 0.00 in Snow Light Snow
9:44 PM 30.2 °F 21.9 °F 28.4 °F 93% 29.65 in 1.5 mi WNW 9.2 mph - 0.00 in Snow Light Snow
9:53 PM 30.0 °F 22.4 °F 28.9 °F 96% 29.70 in 0.8 mi WNW 8.1 mph - 0.01 in Snow Light Snow
9:59 PM 30.2 °F 21.9 °F 28.4 °F 93% 29.65 in 2.0 mi WNW 9.2 mph - 0.00 in Snow Light Snow
10:06 PM 30.2 °F 22.6 °F 28.4 °F 93% 29.66 in 9.0 mi West 8.1 mph 16.1 mph 0.00 in Snow Light Snow
10:13 PM 30.2 °F 18.5 °F 28.4 °F 93% 29.67 in 2.5 mi WNW 17.3 mph 32.2 mph 0.00 in Snow Light Snow
10:17 PM 30.2 °F 15.9 °F 26.6 °F 86% 29.67 in 2.5 mi WNW 26.5 mph 38.0 mph 0.00 in Snow Light Snow
10:21 PM 30.2 °F 19.8 °F 26.6 °F 86% 29.67 in 3.0 mi WNW 13.8 mph 38.0 mph 0.00 in Snow Light Snow
10:53 PM 28.0 °F 15.7 °F 23.0 °F 81% 29.75 in 4.0 mi WNW 17.3 mph 31.1 mph 0.00 in Snow Light Snow
11:27 PM 28.4 °F 18.5 °F 21.2 °F 74% 29.71 in 7.0 mi WNW 11.5 mph 25.3 mph 0.00 in Snow Light Snow
11:53 PM 27.0 °F 16.1 °F 21.9 °F 81% 29.79 in 9.0 mi WNW 12.7 mph 20.7 mph 0.00 in   Overcast